Find NNS 30100

NORAD ID: 2401 Int'l Des: 1966-076 Owner: NAVAIR Country: US operational
LEOCIRCULARPOLAR

リアルタイム位置

3D地球を読み込み中...

NNS 30100について

説明を読み込み中...

次回通過

Passes for default location (London). Set your location on the main map for personalized predictions.

高度履歴

Loading altitude history...

軌道要素

1 02401U 66076A 26131.88270160 .00000095 00000-0 12185-3 0 9991
2 02401 88.8471 70.0551 0034508 52.3546 9.6854 13.53948774946189
Epoch: May 11, 2026 • Age: 7 hours

現在のステータス

高度 1059.2 km
速度 7.32 km/s
衛星直下点 -22.67°S, 141.63°E
タイプ other

Most Searched